User: anonymous   Login
Location: Unspecified
(0.0000°N, 0.0000°E)
Time: 00:14:01
(UTC+00:00)
Language:

SR - Orbit

View from above orbital plane
View from above orbital plane
View from above satellite
View from above satellite

Ground track
Ground track

The orbit data is extracted from the following two-line orbital elements,

1    46U 60007B   17017.91152966 -.00000046 +00000-0 +14223-4 0  9995
2    46 066.6892 174.0348 0213904 338.4251 020.7940 14.48985237958488
Epoch (UTC): 17 January 2017 21:52:36
Eccentricity: 0.0213904
inclination: 66.6892°
perigee height: 577 km
apogee height: 881 km
right ascension of ascending node: 174.0348°
argument of perigee: 338.4251°
revolutions per day: 14.48985237
mean anomaly at epoch: 20.7940°
orbit number at epoch: 95848

The dashed part of the orbit path shows where the satellite is in the earth's shadow,  

DLR